Weather History for KBLH - May, 2013

Change the Weather History Date:

Wednesday, May 1, 2013

  Actual Average Record
Temperature  
Mean Temperature 80 °F -  
Max Temperature 96 °F 89 °F 102 °F (1985)
Min Temperature 66 °F 59 °F 50 °F (1999)
Cooling Degree Days 16    
Growing Degree Days 30 (Base 50)    
Moisture  
Dew Point 19 °F    
Average Humidity 15    
Maximum Humidity 37    
Minimum Humidity 4    
Precipitation  
Precipitation 0.00 in - - ()
Sea Level Pressure  
Sea Level Pressure 29.85 in    
Wind  
Wind Speed 11 mph (North)    
Max Wind Speed 26 mph    
Max Gust Speed 33 mph    
Visibility 10 miles    
Events      
Averages and records for this station are not official NWS values.
T = Trace of Precipitation, MM = Missing Value Source: NWS Daily Summary

Daily Weather History Graph

Daily Weather History Graph

Search for Another Location

Airport or City:

Trip Planner

Search our weather history database for the weather conditions in past years. The results will help you decide how hot, cold, wet, or windy it might be!

Date:

Astronomy

May. 01, 2013 Rise Set
Actual Time 5:50 AM PDT 7:22 PM PDT
Civil Twilight 5:23 AM PDT 7:48 PM PDT
Nautical Twilight 4:51 AM PDT 8:20 PM PDT
Astronomical Twilight 4:18 AM PDT 8:54 PM PDT
Moon 12:34 AM PDT (5/1) 11:32 AM PDT (5/1)
Length of Visible Light 14h 25m
Length of Day
13h 32m
Waning Gibbous, 58% of the Moon is Illuminated
May 1
Waning Gibbous
May 2
Last Quarter
May 9
New
May 17
First Quarter
May 24
Full

Hourly Weather History & Observations

Time (PDT) Temp. Dew Point Humidity Pressure Visibility Wind Dir Wind Speed Gust Speed Precip Events Conditions
12:52 AM 75.9 °F 37.9 °F 25% 29.67 in 10.0 mi South 10.4 mph - N/A   Clear
1:52 AM 73.9 °F 41.0 °F 30% 29.68 in 10.0 mi South 9.2 mph - N/A   Clear
2:52 AM 72.0 °F 42.1 °F 34% 29.69 in 10.0 mi South 10.4 mph - N/A   Clear
3:52 AM 73.9 °F 39.9 °F 29% 29.71 in 10.0 mi South 6.9 mph - N/A   Clear
4:52 AM 72.0 °F 39.9 °F 31% 29.74 in 10.0 mi NNW 3.5 mph - N/A   Clear
5:52 AM 66.9 °F 36.0 °F 32% 29.77 in 10.0 mi NNE 3.5 mph - N/A   Clear
6:52 AM 72.0 °F 44.1 °F 37% 29.81 in 10.0 mi Calm Calm - N/A   Clear
7:52 AM 75.0 °F 41.0 °F 29% 29.84 in 10.0 mi NW 4.6 mph - N/A   Clear
8:52 AM 81.0 °F 39.9 °F 23% 29.86 in 10.0 mi NE 8.1 mph - N/A   Clear
9:52 AM 82.9 °F 37.9 °F 20% 29.88 in 10.0 mi ENE 5.8 mph - N/A   Clear
10:52 AM 90.0 °F 12.0 °F 6% 29.89 in 10.0 mi North 15.0 mph 21.9 mph N/A   Clear
11:52 AM 91.0 °F 10.9 °F 5% 29.90 in 10.0 mi North 11.5 mph 24.2 mph N/A   Clear
12:52 PM 91.9 °F 14.0 °F 6% 29.90 in 10.0 mi North 11.5 mph 21.9 mph N/A   Clear
1:52 PM 93.0 °F 12.0 °F 5% 29.89 in 10.0 mi North 9.2 mph 25.3 mph N/A   Clear
2:52 PM 95.0 °F 7.0 °F 4% 29.88 in 10.0 mi North 17.3 mph 25.3 mph N/A   Clear
3:52 PM 95.0 °F 3.9 °F 4% 29.88 in 10.0 mi North 17.3 mph 25.3 mph N/A   Clear
4:52 PM 95.0 °F 1.0 °F 4% 29.88 in 10.0 mi North 19.6 mph 27.6 mph N/A   Clear
5:52 PM 93.0 °F -0.0 °F 4% 29.88 in 10.0 mi North 20.7 mph 26.5 mph N/A   Clear
6:52 PM 90.0 °F -0.9 °F 4% 29.89 in 10.0 mi North 20.7 mph 25.3 mph N/A   Clear
7:52 PM 86.0 °F -4.0 °F 4% 29.91 in 10.0 mi North 19.6 mph - N/A   Clear
8:52 PM 82.9 °F 1.0 °F 4% 29.94 in 10.0 mi North 16.1 mph - N/A   Clear
9:52 PM 82.9 °F 1.9 °F 4% 29.96 in 10.0 mi North 26.5 mph 33.4 mph N/A   Clear
10:52 PM 81.0 °F 3.0 °F 5% 29.99 in 10.0 mi North 23.0 mph - N/A   Clear
11:52 PM 79.0 °F 1.0 °F 5% 30.01 in 10.0 mi North 23.0 mph 32.2 mph N/A   Clear